Location: Elende
(51.4317°N, 10.6316°E)
Time: 18:43:28
(UTC+00:00)

NOSS 2-2 (D) - Pass Details

Date: 18 September 2020
Orbit: 462 x 1746 km, 63.3° (Epoch: 14 October)

Event Time Altitude Azimuth Distance (km) Brightness Sun altitude
Rises 19:21:23 0° 224° (SW) 2,482 6.9 -18.4°
Reaches altitude 10° 19:23:23 10° 225° (SW) 1,624 5.9 -18.6°
Maximum altitude 19:26:52 87° 309° (NW) 510 3.1 -19.1°
Drops below altitude 10° 19:30:59 10° 45° (NE) 1,904 5.9 -19.7°
Enters shadow 19:32:06 - 45° (NE) 2,377 6.4 -19.8°
